Location: Fours
(44.3167°N, 6.7000°E)
Time: 11:17:33
(UTC+00:00)

Cosmos 2227 - Pass Details

Date: 12 December 2023
Orbit: 836 x 859 km, 71.0° (Epoch: 21 February)

Event Time Altitude Azimuth Distance (km) Brightness Sun altitude
Rises 16:28:04 0° 221° (SW) 3,421 8.9 -6.1°
Reaches altitude 10° 16:30:37 10° 227° (SW) 2,487 8.1 -6.5°
Maximum altitude 16:36:07 48° 301° (WNW) 1,116 5.1 -7.4°
Drops below altitude 10° 16:41:38 10° 16° (NNE) 2,491 6.3 -8.3°
Enters shadow 16:44:12 - 22° (NNE) 3,427 6.9 -8.7°
Sets 16:44:12 0° 22° (NNE) 3,427 6.9 -8.7°
